Regional Weather Roundup
Issued by NWS

Home | Current Version | Previous Version | Graphics & Text | Print | Product List | Glossary Off
Versions: 1 2 3 4 5 6 7 8 9 10 11 12 13 14 15 16 17 18 19 20 21 22 23 24 25 26 27 28 29 30 31 32 33 34 35 36 37 38 39 40 41 42 43 44 45 46 47 48 49 50

000
ASUS43 KMPX 260310
RWRMN
WEATHER ROUNDUP FOR MINNESOTA
NATIONAL WEATHER SERVICE TWIN CITIES/CHANHASSEN MN
1000 PM CDT THU AUG 25 2016


NOTE: "FAIR" INDICATES FEW OR NO CLOUDS BELOW 12,000 FEET WITH NO
SIGNIFICANT WEATHER AND/OR OBSTRUCTIONS TO VISIBILITY. N/A MEANS
CURRENT SKY AND/OR WEATHER CONDITIONS ARE NOT AVAILABLE.

MNZ060>063-068>070-260400-
   Twin Cities Metro

CITY           SKY/WX    TMP DP  RH WIND       PRES   REMARKS
TWIN CITIES    CLEAR     65  53  65 W7        30.10R
ST PAUL        CLEAR     64  53  67 W7        30.10R
CRYSTAL        CLEAR     62  52  69 W5        30.09R
BLAINE         CLEAR     64  55  72 W5        30.10R
LAKEVILLE      CLEAR     59  54  82 W3        30.11S
EDEN PRAIRIE   CLEAR     62  53  72 W5        30.10R
LAKEVILLE      CLEAR     59  54  82 W3        30.11S
SOUTH ST PAUL  CLEAR     62  53  72 W5        30.10S
LAKE ELMO      FAIR      59  55  88 CALM      30.11R
$$
MNZ001>005-007-008-013>017-022>024-027-028-260400-
   Northwest Minnesota

CITY           SKY/WX    TMP DP  RH WIND       PRES   REMARKS
BEMIDJI        MOCLDY    57  50  76 W3        30.07R
HALLOCK        CLEAR     54  52  94 CALM      30.04R
ROSEAU         PTCLDY    57  52  82 CALM      30.04R
WARROAD        CLEAR     52  48  87 S5        30.04R
THIEF RVR FALL CLEAR     52  48  86 S3        30.07R
CROOKSTON      PTCLDY    57  52  82 SW5       30.07R
FOSSTON        CLEAR     48  43  81 CALM      30.09R
DETROIT LAKES  PTCLDY    59  52  77 W5        30.10S
MOORHEAD       CLOUDY    61  54  77 SW3       30.09S
PARK RAPIDS    PTCLDY    56  50  80 CALM      30.08S
MAHNOMEN       FAIR      56  50  79 W6        30.08S
$$
MNZ006-009>011-018-025>026-260400-
   North Central Minnesota

CITY           SKY/WX    TMP DP  RH WIND       PRES   REMARKS
BAUDETTE       PTCLDY    54  52  93 S5        30.03R
FLAG ISLAND    CLEAR     63  52  67 CALM      30.01S
INTL FALLS     CLOUDY    53  52  96 CALM      30.03R
WASKISH        MOCLDY    61  52  72 NW7       30.05S
BIG FORK       CLOUDY    57  54  88 CALM      30.06R
LONGVILLE      CLEAR     54  52  94 CALM      30.07S
GRAND RAPIDS   CLOUDY    60  53  77 NW7       30.08R
CRANE LAKE     CLOUDY    57  55  94 CALM      30.03R
ORR            CLOUDY    57  52  82 W5        30.02R
COOK           CLOUDY    57  55  94 W3        30.04R
WALKER         FAIR      52  51  98 CALM      30.08R
$$
MNZ012-019>021-037-260400-
   Northeast Minnesota

CITY           SKY/WX    TMP DP  RH WIND       PRES   REMARKS
DULUTH         MOCLDY    59  55  87 W9        30.04R
ELY            CLOUDY    57  55  94 W7        30.01S
HIBBING        CLOUDY    56  53  90 W5        30.04S
EVELETH        MOCLDY    58  55  92 W5        30.05R
DULUTH HARBOR  CLOUDY    64  57  77 W12       30.04R
TWO HARBORS    CLEAR     63  55  77 CALM      30.00R
SILVER BAY     CLOUDY    61  57  88 CALM      29.99S
GRAND MARAIS     N/A     60  56  86 W9        29.95R
G MARAIS ARPRT PTCLDY    57  52  82 W5        29.98S
$$
MNZ029>031-032-039>041-046>048-054>057-064-260400-
   West Central Minnesota

CITY           SKY/WX    TMP DP  RH WIND       PRES   REMARKS
FERGUS FALLS   CLEAR     57  55  94 W5        30.12R
WHEATON        CLEAR     57  55  94 SW5       30.13S
MORRIS         PTCLDY    57  55  94 W3        30.11S
ALEXANDRIA     PTCLDY    59  54  83 W7        30.12R
ELBOW LAKE     CLOUDY    56  55  96 SW5       30.11S
WADENA         PTCLDY    54  52  94 SW5       30.09S
GLENWOOD       MOCLDY    59  55  88 W5        30.12S
APPLETON       CLOUDY    61  55  82 CALM      30.12R
BENSON         CLOUDY    59  54  82 CALM      30.12S
ORTONVILLE     CLEAR     61  54  77 CALM      30.12S
MADISON        CLEAR     55  54  94 W3        30.13S
WILLMAR        FAIR      57  54  88 W3        30.14R
$$
MNZ033>034-036-042>043-049>051-058-059-260400-
   Central Minnesota

CITY           SKY/WX    TMP DP  RH WIND       PRES   REMARKS
ST CLOUD       CLOUDY    62  56  80 W7        30.10R
SAUK CENTRE    CLOUDY    58  56  91 W5        30.11S
PAYNESVILLE    MOCLDY    56  57 100 CALM      30.12R
AITKIN         MOCLDY    57  52  82 CALM      30.06S
PINE RIVER     CLEAR     54  54 100 CALM      30.11R
BRAINERD       PTCLDY    59  53  80 W6        30.08S
STAPLES        CLEAR     54  52  94 CALM      30.09S
LONG PRAIRIE   FAIR      55  54  94 CALM      30.11R
LITTLE FALLS   PTCLDY    59  54  82 CALM      30.10R
LITCHFIELD     CLEAR     61  55  82 CALM      30.12S
BUFFALO        CLEAR     62  55  76 W3        30.12R
MAPLE LAKE     CLEAR     60  56  85 W3        30.12R
HUTCHINSON     CLEAR     57  55  94 W3        30.14R
$$
MNZ037-044-045-052-053-260400-
   East Central Minnesota

CITY           SKY/WX    TMP DP  RH WIND       PRES   REMARKS
PRINCETON        N/A     63  55  77 CALM      30.09S
MORA           CLOUDY    59  54  82 W5        30.09S
CAMBRIDGE      CLOUDY    64  54  68 CALM      30.07S
RUSH CITY      CLOUDY    62  55  78 W5        30.08S
MOOSE LAKE     MOCLDY    57  52  82 W3        30.04S
HINCKLEY       MOCLDY    59  55  88 W3        30.07S
CLOQUET        MOCLDY    61  52  72 W6        30.05S
MCGREGOR       MOCLDY    59  52  77 W3        30.07S
$$
MNZ071>073-080-081-089-090-097-098-260400-
   Southwest Minnesota

CITY           SKY/WX    TMP DP  RH WIND       PRES   REMARKS
MONTEVIDEO     CLEAR     57  50  77 W3        30.14S
GRANITE FALLS  CLEAR     58  54  87 NW3       30.15R
CANBY          CLEAR     58  53  85 SW5       30.15S
MARSHALL       CLEAR     57  54  89 W3        30.15R
REDWOOD FALLS  CLEAR     62  53  72 CALM      30.13R
OLIVIA         CLEAR     55  52  88 CALM      30.13R
PIPESTONE      CLEAR     61  54  77 NE2       30.16R
WINDOM         CLEAR     57  55  94 CALM      30.15R
WORTHINGTON    CLEAR     60  56  86 CALM      30.16R
JACKSON        CLEAR     57  54  88 CALM      30.16R
TRACY          PTCLDY    59  57  92 CALM      30.16R
SLAYTON        CLEAR     57  54  88 CALM      30.17R
$$
MNZ065>067-074>077-082>085-091>093-260400-
   South Central Minnesota

CITY           SKY/WX    TMP DP  RH WIND       PRES   REMARKS
MANKATO        CLEAR     63  54  72 CALM      30.13S
NEW ULM          N/A     61  55  82 NW3       30.13S
ST JAMES       CLEAR     55  54  94 CALM      30.15R
FAIRMONT       CLEAR     61  58  90 NW3       30.15R
GLENCOE        CLEAR     60  56  87 W3        30.12R
FARIBAULT      CLEAR     59  57  94 CALM      30.13R
OWATONNA       MOCLDY    63  57  82 CALM      30.13S
WASECA         PTCLDY    59  55  88 N5        30.14S
ALBERT LEA     PTCLDY    63  61  94 CALM      30.14R
$$
MNZ078>079-086>088-094>096-260400-
   Southeast Minnesota

CITY           SKY/WX    TMP DP  RH WIND       PRES   REMARKS
ROCHESTER      PTCLDY    61  58  90 NW7       30.14R
RED WING       CLEAR     61  55  82 CALM      30.10R
STANTON        MOCLDY    63  57  82 CALM      30.11R
DODGE CENTER   MOCLDY    63  57  82 NW3       30.14R
WINONA         CLEAR     64  59  82 W3        30.10R
AUSTIN         CLEAR     63  57  82 CALM      30.13R
PRESTON        CLEAR     61  56  84 W7        30.14R
$$
ABBREVIATIONS USED IN REMARKS
   TC - TEMPERATURES IN CELSIUS
  WCI - WIND CHILL INDEX
   HX - HEAT INDEX
  VSB - VISIBILITY
$$




USA.gov is the U.S. government's official web portal to all federal, state and local government web resources and services.